DW3072 Weather Reports


Display with metric or nautical units.
time (UTC)temp
F
wind
direction
speed
MPH
gust
MPH
rain 1hr
in
rain 24hr
in
rain mn
in
humidity
%
barometer
mb
20260902012045 73 34 0.0 0.0 0.00 0.03 0.03 93 1014.5
20260902010533 73 34 0.0 1.0 0.00 0.03 0.03 93 1014.9
20260902005156 73 334 0.0 4.0 0.00 0.03 0.03 93 1015.1
20260902003551 73 94 0.0 0.0 0.00 0.03 0.03 92 1014.2
20260902002034 74 94 0.0 0.0 0.00 0.03 0.03 91 1013.7
20260902000547 75 94 0.0 0.0 0.00 0.03 0.03 91 1013.8
20260901235029 75 94 0.0 0.0 0.00 0.03 0.03 91 1013.8
20260901233531 76 94 0.0 0.0 0.00 0.03 0.03 90 1013.2
20260901232043 76 94 0.0 0.0 0.00 0.03 0.03 89 1012.9
20260901230534 77 94 0.0 1.0 0.00 0.03 0.03 88 1013.0
20260901225038 78 94 0.0 0.0 0.00 0.03 0.03 89 1013.2
20260901223536 78 94 0.0 3.0 0.00 0.03 0.03 89 1013.5
20260901222047 79 55 1.0 2.0 0.00 0.03 0.03 90 1013.3
20260901220556 80 310 0.0 0.0 0.00 0.03 0.03 89 1012.8
20260901215100 81 310 0.0 0.0 0.00 0.03 0.03 87 1012.2
20260901213553 82 310 0.0 0.0 0.00 0.03 0.03 83 1012.5
20260901212043 83 310 0.0 0.0 0.00 0.03 0.03 81 1012.7
20260901210532 84 310 0.0 2.0 0.00 0.03 0.03 81 1012.6
20260901205055 85 258 1.0 5.0 0.00 0.03 0.03 77 1012.3
20260901203538 85 281 2.0 7.0 0.00 0.03 0.03 78 1012.4
20260901202043 85 241 3.0 6.0 0.00 0.03 0.03 77 1012.6
20260901200552 84 10 3.0 9.0 0.00 0.03 0.03 79 1012.7
20260901195032 84 317 1.0 3.0 0.00 0.04 0.03 82 1012.6
20260901193539 84 250 1.0 7.0 0.00 0.04 0.03 82 1012.8
20260901192028 84 4 1.0 4.0 0.00 0.04 0.03 83 1013.2
20260901190534 83 24 0.0 3.0 0.00 0.04 0.03 84 1013.1
20260901185037 83 210 1.0 2.0 0.00 0.04 0.03 85 1013.4
20260901183542 83 55 0.0 3.0 0.00 0.04 0.03 83 1013.3
20260901182031 83 351 1.0 3.0 0.00 0.04 0.03 85 1013.4
20260901180536 82 271 1.0 4.0 0.00 0.04 0.03 84 1013.3
20260901175041 82 302 2.0 5.0 0.00 0.04 0.03 83 1013.3
20260901173546 81 335 1.0 3.0 0.00 0.04 0.03 86 1013.4
20260901172054 79 325 1.0 4.0 0.00 0.04 0.03 92 1013.5
20260901170542 78 347 1.0 3.0 0.00 0.04 0.03 93 1013.7
20260901165042 77 333 1.0 2.0 0.00 0.04 0.03 94 1014.0
20260901163549 77 27 1.0 3.0 0.00 0.04 0.03 94 1014.3
20260901162058 77 76 0.0 4.0 0.00 0.04 0.03 94 1014.2
20260901160539 76 82 1.0 3.0 0.00 0.04 0.03 95 1014.4
20260901155039 76 334 1.0 3.0 0.00 0.04 0.03 96 1014.6
20260901153542 75 300 0.0 2.0 0.02 0.04 0.03 97 1014.8
20260901152029 75 300 0.0 0.0 0.03 0.04 0.03 96 1014.7
20260901150536 74 300 0.0 0.0 0.03 0.04 0.03 96 1014.9
20260901145028 74 300 0.0 0.0 0.03 0.04 0.03 95 1014.8
20260901143603 75 300 0.0 2.0 0.01 0.02 0.01 95 1014.9
20260901142046 75 300 0.0 2.0 0.00 0.01 0.00 94 1014.8
20260901140554 74 300 0.0 1.0 0.00 0.01 0.00 95 1014.6
20260901135033 74 300 1.0 4.0 0.00 0.01 0.00 96 1014.7
20260901133536 74 292 0.0 2.0 0.00 0.01 0.00 97 1014.4
20260901132044 73 281 1.0 3.0 0.00 0.01 0.00 97 1014.5
20260901130550 72 13 0.0 2.0 0.00 0.01 0.00 97 1014.6
20260901125049 71 300 0.0 0.0 0.00 0.01 0.00 97 1014.9
20260901123531 71 300 0.0 0.0 0.00 0.01 0.00 97 1015.2
20260901122041 70 300 0.0 0.0 0.00 0.01 0.00 97 1015.1
20260901120528 70 300 0.0 0.0 0.00 0.01 0.00 97 1014.9
20260901115030 69 300 0.0 0.0 0.00 0.01 0.00 97 1015.0
20260901113532 69 300 0.0 0.0 0.00 0.01 0.00 97 1014.9
20260901112038 69 300 0.0 0.0 0.00 0.01 0.00 97 1014.6
20260901110525 69 300 0.0 1.0 0.00 0.01 0.00 97 1014.8
20260901105028 69 300 0.0 0.0 0.00 0.01 0.00 97 1014.8
20260901103533 68 300 0.0 0.0 0.00 0.01 0.00 97 1015.0
20260901102045 68 300 0.0 1.0 0.00 0.01 0.00 96 1015.1
20260901100532 68 300 0.0 0.0 0.00 0.01 0.00 97 1015.0
20260901095056 68 300 0.0 0.0 0.00 0.01 0.00 97 1015.0
20260901093541 68 300 0.0 0.0 0.00 0.01 0.00 97 1015.0
20260901092048 68 300 0.0 0.0 0.00 0.01 0.00 96 1014.9
20260901090552 68 300 0.0 0.0 0.00 0.01 0.00 96 1015.0
20260901085048 68 300 0.0 0.0 0.00 0.01 0.00 97 1015.2
20260901083532 68 300 0.0 0.0 0.00 0.01 0.00 97 1015.3
20260901082042 68 300 0.0 0.0 0.00 0.01 0.00 96 1015.2
20260901080531 68 300 0.0 0.0 0.00 0.01 0.00 97 1015.4
20260901075030 68 300 0.0 1.0 0.00 0.01 0.00 96 1015.4
20260901073532 68 300 0.0 0.0 0.00 0.01 0.00 96 1015.4
20260901072042 68 300 0.0 0.0 0.00 0.01 0.00 96 1015.5
20260901070530 68 300 0.0 0.0 0.00 0.01 0.00 96 1015.5
20260901065047 68 300 0.0 0.0 0.00 0.01 0.00 96 1015.6
20260901063553 68 300 0.0 0.0 0.00 0.01 0.00 96 1015.7
20260901062039 68 300 0.0 0.0 0.00 0.01 0.00 96 1015.8
20260901060547 68 300 0.0 0.0 0.00 0.01 0.00 96 1015.8
20260901055052 68 300 0.0 0.0 0.00 0.01 0.00 96 1016.1
20260901053533 68 300 0.0 0.0 0.00 0.01 0.00 96 1016.2
20260901052038 68 300 0.0 0.0 0.00 0.01 0.00 96 1016.3
20260901050527 68 300 0.0 0.0 0.00 0.01 0.00 96 1016.5
20260901045028 68 300 0.0 0.0 0.00 0.01 0.00 96 1016.5
20260901043530 68 300 0.0 0.0 0.00 0.01 0.00 96 1016.4
20260901042106 68 300 0.0 0.0 0.00 0.01 0.00 95 1016.5
20260901040550 68 300 0.0 0.0 0.00 0.01 0.00 95 1016.5
20260901035027 68 300 0.0 0.0 0.00 0.01 0.01 95 1016.4
20260901033527 69 300 0.0 0.0 0.00 0.01 0.01 95 1016.6
20260901032030 69 300 0.0 0.0 0.00 0.01 0.01 95 1016.6
20260901030538 69 300 0.0 0.0 0.00 0.01 0.01 95 1016.7
20260901025043 69 300 0.0 0.0 0.00 0.01 0.01 95 1017.0
20260901023543 69 300 0.0 0.0 0.00 0.01 0.01 95 1017.1
20260901022054 69 300 0.0 0.0 0.00 0.01 0.01 95 1017.3
20260901020549 69 300 0.0 0.0 0.00 0.01 0.01 95 1017.3
20260901015026 68 300 0.0 0.0 0.00 0.01 0.01 94 1017.3
20260901013542 68 300 0.0 0.0 0.00 0.01 0.01 94 1017.3